Weather History for Lynchburg, VA

Change the Weather History Date:

Friday, March 21, 2014

  Actual Average Record
Temperature  
Mean Temperature 53 °F 47 °F  
Max Temperature 73 °F 60 °F 88 °F (1921)
Min Temperature 32 °F 35 °F 7 °F (1965)
Degree Days  
Heating Degree Days 12 18  
Month to date heating degree days 468 437  
Since 1 July heating degree days 3982 3861  
Cooling Degree Days 0 0  
Month to date cooling degree days 0 0  
Year to date cooling degree days 0 0  
Growing Degree Days 3 (Base 50)    
Moisture  
Dew Point 26 °F    
Average Humidity 39    
Maximum Humidity 59    
Minimum Humidity 19    
Precipitation  
Precipitation 0.00 in 0.12 in 1.27 in (1962)
Month to date precipitation 1.82 2.37  
Year to date precipitation 8.90 8.44  
Snow  
Snow 0.00 in - - ()
Month to date snowfall 3.4  
Since 1 July snowfall 15.4  
Snow Depth 0.00 in    
Sea Level Pressure  
Sea Level Pressure 30.04 in    
Wind  
Wind Speed 7 mph (SW)    
Max Wind Speed 17 mph    
Max Gust Speed 21 mph    
Visibility 10 miles    
Events      
T = Trace of Precipitation, MM = Missing Value Source: NWS Daily Summary

Daily Weather History Graph

Daily Weather History Graph

Search for Another Location

Airport:

Trip Planner

Search our weather history database for the weather conditions in past years. The results will help you decide how hot, cold, wet, or windy it might be!

Date:

Astronomy

Mar. 21, 2014 Rise Set
Actual Time 7:18 AM EDT 7:29 PM EDT
Civil Twilight 6:52 AM EDT 7:55 PM EDT
Nautical Twilight 6:22 AM EDT 8:26 PM EDT
Astronomical Twilight 5:51 AM EDT 8:57 PM EDT
Moon No Moon Rise 10:15 AM EDT (3/21)
Length of Visible Light 13h 02m
Length of Day
12h 10m
Waning Gibbous, 75% of the Moon is Illuminated
Mar 21
Waning Gibbous
Mar 23
Last Quarter
Mar 30
New
Apr 7
First Quarter
Apr 15
Full

Hourly Weather History & Observations

Time (EDT) Temp. Windchill Dew Point Humidity Pressure Visibility Wind Dir Wind Speed Gust Speed Precip Events Conditions
12:54 AM 39.9 °F - 23.0 °F 51% 30.05 in 10.0 mi Calm Calm - N/A   Clear
1:54 AM 37.9 °F - 21.9 °F 53% 30.05 in 10.0 mi Calm Calm - N/A   Clear
2:54 AM 36.0 °F - 21.9 °F 57% 30.06 in 10.0 mi Calm Calm - N/A   Clear
3:54 AM 36.0 °F 32.1 °F 23.0 °F 59% 30.05 in 10.0 mi SSW 4.6 mph - N/A   Clear
4:54 AM 35.1 °F - 21.9 °F 59% 30.05 in 10.0 mi Calm Calm - N/A   Clear
5:54 AM 41.0 °F 37.1 °F 21.9 °F 47% 30.06 in 10.0 mi WSW 5.8 mph - N/A   Clear
6:54 AM 43.0 °F 39.5 °F 21.9 °F 43% 30.07 in 10.0 mi SW 5.8 mph - N/A   Clear
7:54 AM 39.9 °F 37.8 °F 23.0 °F 51% 30.10 in 10.0 mi SW 3.5 mph - N/A   Clear
8:54 AM 46.9 °F - 28.0 °F 48% 30.10 in 10.0 mi SSW 5.8 mph - N/A   Clear
9:54 AM 55.0 °F - 26.1 °F 33% 30.10 in 10.0 mi SW 9.2 mph - N/A   Clear
10:54 AM 59.0 °F - 27.0 °F 29% 30.10 in 10.0 mi SSW 10.4 mph - N/A   Clear
11:54 AM 62.1 °F - 27.0 °F 26% 30.10 in 10.0 mi West 8.1 mph 20.7 mph N/A   Clear
12:54 PM 64.9 °F - 28.0 °F 25% 30.07 in 10.0 mi West 9.2 mph 16.1 mph N/A   Clear
1:54 PM 68.0 °F - 27.0 °F 21% 30.04 in 10.0 mi West 9.2 mph 20.7 mph N/A   Clear
2:54 PM 70.0 °F - 26.1 °F 19% 30.03 in 10.0 mi West 8.1 mph 16.1 mph N/A   Clear
3:54 PM 71.1 °F - 26.1 °F 19% 30.00 in 10.0 mi SW 12.7 mph 20.7 mph N/A   Clear
4:54 PM 71.1 °F - 28.0 °F 20% 29.99 in 10.0 mi SSW 13.8 mph - N/A   Clear
5:54 PM 71.1 °F - 26.1 °F 19% 29.98 in 10.0 mi SSW 12.7 mph 17.3 mph N/A   Clear
6:54 PM 66.0 °F - 27.0 °F 23% 29.99 in 10.0 mi SSW 10.4 mph - N/A   Clear
7:54 PM 60.1 °F - 28.0 °F 30% 30.00 in 10.0 mi South 6.9 mph - N/A   Clear
8:54 PM 55.0 °F - 28.0 °F 35% 30.01 in 10.0 mi South 6.9 mph - N/A   Clear
9:54 PM 54.0 °F - 28.0 °F 37% 30.01 in 10.0 mi South 5.8 mph - N/A   Clear
10:54 PM 57.9 °F - 27.0 °F 31% 30.01 in 10.0 mi SW 6.9 mph - N/A   Clear
11:54 PM 57.0 °F - 27.0 °F 32% 30.01 in 10.0 mi SSW 4.6 mph - N/A   Clear